When you browse on this site, cookies collect data to enhance your experience and personalize the content and advertising you see.
Visit our Privacy Policy to learn more. By continuing to use the site, you agree to this use of cookies and data.
  • In Romania
  • List of Countries
  • For 7 days
  • Water Temperature
  • Satellite Maps
  • Weather Map
  • Weather Widgets
  • user-avatar
    Login

    Hourly Weather Maracaibo

    Today, 22 January, Tuesday

    Time Temperature Precipitation Wind Pressure Humidity
    00:00 +28°C° 0 mm 5 mps 755 mmHg 70%
    01:00 +28°C° 0 mm 4 mps 755 mmHg 69%
    02:00 +28°C° 0 mm 4 mps 755 mmHg 69%
    03:00 +27°C° 0 mm 4 mps 755 mmHg 69%
    04:00 +27°C° 0 mm 4 mps 755 mmHg 70%
    05:00 +27°C° 0 mm 4 mps 755 mmHg 70%
    06:00 +27°C° 0 mm 4 mps 755 mmHg 70%
    07:00 +27°C° 0 mm 4 mps 756 mmHg 71%
    08:00 +29°C° 0 mm 3 mps 756 mmHg 64%
    09:00 +30°C° 0 mm 3 mps 756 mmHg 58%
    10:00 +33°C° 0 mm 3 mps 756 mmHg 51%
    11:00 +33°C° 0 mm 3 mps 755 mmHg 49%
    12:00 +34°C° 0 mm 3 mps 754 mmHg 47%
    13:00 +35°C° 0 mm 3 mps 754 mmHg 45%
    14:00 +35°C° 0 mm 4 mps 753 mmHg 47%
    15:00 +34°C° 0 mm 5 mps 753 mmHg 49%
    16:00 +34°C° 0 mm 6 mps 752 mmHg 51%
    17:00 +33°C° 0 mm 7 mps 753 mmHg 55%
    18:00 +32°C° 0 mm 7 mps 753 mmHg 59%
    19:00 +31°C° 0 mm 8 mps 754 mmHg 63%
    20:00 +29°C° 0 mm 7 mps 754 mmHg 63%
    21:00 +29°C° 0 mm 7 mps 755 mmHg 62%
    22:00 +29°C° 0 mm 7 mps 755 mmHg 62%
    23:00 +28°C° 0 mm 6 mps 755 mmHg 63%

    Tomorrow, 23 January, Wednesday

    Time Temperature Precipitation Wind Pressure Humidity
    00:00 +28°C° 0 mm 6 mps 755 mmHg 64%
    01:00 +28°C° 0 mm 6 mps 755 mmHg 65%
    02:00 +27°C° 0 mm 5 mps 754 mmHg 65%
    03:00 +27°C° 0 mm 5 mps 754 mmHg 66%
    04:00 +27°C° 0 mm 4 mps 754 mmHg 66%
    05:00 +27°C° 0 mm 4 mps 755 mmHg 64%
    06:00 +28°C° 0 mm 4 mps 755 mmHg 63%
    07:00 +28°C° 0 mm 4 mps 755 mmHg 62%
    08:00 +29°C° 0 mm 4 mps 755 mmHg 56%
    09:00 +31°C° 0 mm 3 mps 756 mmHg 50%
    10:00 +33°C° 0 mm 3 mps 756 mmHg 45%
    11:00 +35°C° 0 mm 3 mps 755 mmHg 42%
    12:00 +36°C° 0 mm 3 mps 754 mmHg 39%
    13:00 +37°C° 0 mm 3 mps 753 mmHg 36%
    14:00 +37°C° 0 mm 3 mps 753 mmHg 38%
    15:00 +36°C° 0 mm 4 mps 752 mmHg 39%
    16:00 +36°C° 0 mm 5 mps 751 mmHg 41%
    17:00 +35°C° 0 mm 5 mps 752 mmHg 45%
    18:00 +34°C° 0 mm 6 mps 752 mmHg 48%
    19:00 +32°C° 0 mm 6 mps 753 mmHg 52%
    20:00 +32°C° 0 mm 6 mps 753 mmHg 53%
    21:00 +30°C° 0 mm 6 mps 754 mmHg 55%
    22:00 +29°C° 0 mm 6 mps 754 mmHg 56%
    23:00 +29°C° 0 mm 6 mps 754 mmHg 58%

    Day after tomorrow, 24 January, Thursday

    Time Temperature Precipitation Wind Pressure Humidity
    00:00 +28°C° 0 mm 5 mps 754 mmHg 61%
    01:00 +28°C° 0 mm 4 mps 753 mmHg 63%
    02:00 +28°C° 0 mm 4 mps 753 mmHg 64%
    03:00 +27°C° 0 mm 4 mps 753 mmHg 65%
    04:00 +27°C° 0 mm 3 mps 753 mmHg 65%
    05:00 +27°C° 0 mm 3 mps 753 mmHg 65%
    06:00 +27°C° 0 mm 3 mps 754 mmHg 64%
    07:00 +27°C° 0 mm 3 mps 754 mmHg 64%
    08:00 +29°C° 0 mm 3 mps 754 mmHg 59%
    09:00 +30°C° 0 mm 2 mps 754 mmHg 54%
    10:00 +32°C° 0 mm 2 mps 755 mmHg 49%
    11:00 +34°C° 0 mm 2 mps 754 mmHg 46%
    12:00 +35°C° 0 mm 2 mps 753 mmHg 44%
    13:00 +37°C° 0 mm 2 mps 752 mmHg 41%
    14:00 +36°C° 0 mm 3 mps 751 mmHg 42%
    15:00 +36°C° 0 mm 4 mps 751 mmHg 43%
    16:00 +35°C° 0 mm 5 mps 750 mmHg 44%
    17:00 +34°C° 0 mm 5 mps 751 mmHg 48%
    18:00 +33°C° 0 mm 6 mps 752 mmHg 52%
    19:00 +30°C° 0 mm 6 mps 752 mmHg 56%
    20:00 +30°C° 0 mm 6 mps 753 mmHg 57%
    21:00 +30°C° 0 mm 6 mps 754 mmHg 57%
    22:00 +30°C° 0 mm 6 mps 754 mmHg 57%
    23:00 +29°C° 0 mm 5 mps 754 mmHg 58%

    25 January, Friday

    Time Temperature Precipitation Wind Pressure Humidity
    00:00 +29°C° 0 mm 4 mps 754 mmHg 60%
    01:00 +28°C° 0 mm 3 mps 753 mmHg 61%
    02:00 +28°C° 0 mm 3 mps 753 mmHg 63%
    03:00 +27°C° 0 mm 3 mps 753 mmHg 64%
    04:00 +27°C° 0 mm 3 mps 753 mmHg 66%
    05:00 +27°C° 0 mm 3 mps 753 mmHg 66%
    06:00 +27°C° 0 mm 3 mps 754 mmHg 66%
    07:00 +27°C° 0 mm 2 mps 754 mmHg 67%
    08:00 +29°C° 0 mm 2 mps 754 mmHg 61%
    09:00 +31°C° 0 mm 2 mps 754 mmHg 56%
    10:00 +32°C° 0 mm 2 mps 754 mmHg 50%
    11:00 +34°C° 0 mm 2 mps 754 mmHg 47%
    12:00 +35°C° 0 mm 2 mps 753 mmHg 45%
    13:00 +36°C° 0 mm 2 mps 752 mmHg 42%
    14:00 +36°C° 0 mm 4 mps 751 mmHg 44%
    15:00 +35°C° 0 mm 5 mps 751 mmHg 47%
    16:00 +34°C° 0 mm 6 mps 750 mmHg 50%
    17:00 +33°C° 0 mm 6 mps 751 mmHg 53%
    18:00 +32°C° 0 mm 6 mps 751 mmHg 57%
    19:00 +30°C° 0 mm 6 mps 752 mmHg 61%
    20:00 +30°C° 0 mm 6 mps 752 mmHg 61%
    21:00 +29°C° 0 mm 6 mps 753 mmHg 61%
    22:00 +29°C° 0 mm 5 mps 754 mmHg 61%
    23:00 +29°C° 0 mm 5 mps 753 mmHg 61%

    26 January, Saturday

    Time Temperature Precipitation Wind Pressure Humidity
    00:00 +28°C° 0 mm 4 mps 753 mmHg 61%
    01:00 +28°C° 0 mm 4 mps 753 mmHg 61%
    02:00 +28°C° 0 mm 4 mps 753 mmHg 62%
    03:00 +27°C° 0 mm 3 mps 753 mmHg 64%
    04:00 +27°C° 0 mm 3 mps 753 mmHg 66%
    05:00 +27°C° 0 mm 3 mps 753 mmHg 67%
    06:00 +27°C° 0 mm 3 mps 754 mmHg 67%
    07:00 +27°C° 0 mm 3 mps 754 mmHg 67%
    08:00 +28°C° 0 mm 2 mps 754 mmHg 61%
    09:00 +30°C° 0 mm 2 mps 754 mmHg 55%
    10:00 +32°C° 0 mm 2 mps 755 mmHg 49%
    11:00 +34°C° 0 mm 2 mps 754 mmHg 46%
    12:00 +35°C° 0 mm 2 mps 753 mmHg 44%
    13:00 +36°C° 0 mm 2 mps 752 mmHg 41%
    14:00 +35°C° 0 mm 3 mps 751 mmHg 44%
    15:00 +34°C° 0 mm 4 mps 751 mmHg 46%
    16:00 +34°C° 0 mm 5 mps 750 mmHg 48%
    17:00 +33°C° 0 mm 6 mps 750 mmHg 54%
    18:00 +30°C° 0 mm 6 mps 751 mmHg 59%
    19:00 +29°C° 0 mm 6 mps 751 mmHg 65%
    20:00 +29°C° 0 mm 6 mps 752 mmHg 65%
    21:00 +29°C° 0 mm 6 mps 752 mmHg 66%
    22:00 +28°C° 0 mm 6 mps 753 mmHg 67%
    23:00 +28°C° 0 mm 5 mps 753 mmHg 67%

    27 January, Sunday

    Time Temperature Precipitation Wind Pressure Humidity
    00:00 +28°C° 0 mm 4 mps 752 mmHg 66%
    01:00 +27°C° 0 mm 3 mps 752 mmHg 66%
    02:00 +27°C° 0 mm 3 mps 752 mmHg 67%
    03:00 +27°C° 0 mm 3 mps 752 mmHg 69%
    04:00 +26°C° 0 mm 3 mps 752 mmHg 70%
    05:00 +26°C° 0 mm 2 mps 752 mmHg 70%
    06:00 +26°C° 0 mm 2 mps 752 mmHg 70%
    07:00 +27°C° 0 mm 2 mps 753 mmHg 70%
    08:00 +28°C° 0 mm 2 mps 753 mmHg 63%
    09:00 +30°C° 0 mm 2 mps 753 mmHg 57%
    10:00 +32°C° 0 mm 1 mps 753 mmHg 51%
    11:00 +34°C° 0 mm 2 mps 753 mmHg 48%
    12:00 +35°C° 0 mm 2 mps 752 mmHg 45%
    13:00 +36°C° 0 mm 2 mps 751 mmHg 42%
    14:00 +35°C° 0 mm 3 mps 751 mmHg 44%
    15:00 +35°C° 0 mm 4 mps 750 mmHg 46%
    16:00 +34°C° 0 mm 5 mps 750 mmHg 48%
    17:00 +33°C° 0 mm 5 mps 750 mmHg 54%
    18:00 +32°C° 0 mm 5 mps 751 mmHg 60%
    19:00 +29°C° 0 mm 5 mps 751 mmHg 66%
    20:00 +29°C° 0 mm 5 mps 752 mmHg 66%
    21:00 +29°C° 0 mm 5 mps 752 mmHg 67%
    22:00 +28°C° 0 mm 5 mps 753 mmHg 67%
    23:00 +28°C° 0 mm 4 mps 753 mmHg 67%
    Show more